,,Stat5,,Stat1,,Stat2,,Stat3,,Stat4,,Wind1,,Wind1,
time,status,PA1M_AVG,status,PR1M_SUM,status,RH1M_AVG,status,SR1M_AVG,status,TA1M_AVG,status,W1dAve1m,status,W1sAve1m,
2003-01-22, 00:00:00,VALID,919.53,VALID,0,VALID,98.4731,VALID,-0.0679233,VALID,20.6507,VALID,280,VALID,0.363898,
2003-01-22, 00:01:01,VALID,919.5,VALID,0,VALID,98.4298,VALID,-0.0679233,VALID,20.6251,VALID,327,VALID,0.77207,
2003-01-22, 00:02:01,VALID,919.473,VALID,0,VALID,98.4998,VALID,-0.101885,VALID,20.6278,VALID,355,VALID,0.842516,
2003-01-22, 00:03:00,VALID,919.461,VALID,0,VALID,98.4743,VALID,-0.0849042,VALID,20.6154,VALID,335,VALID,0.633413,
2003-01-22, 00:04:01,VALID,919.424,VALID,0,VALID,98.4781,VALID,-0.0849042,VALID,20.5763,VALID,341,VALID,0.84976,
2003-01-22, 00:05:01,VALID,919.409,VALID,0,VALID,98.5074,VALID,-0.0849042,VALID,20.5671,VALID,25,VALID,0.467928,
2003-01-22, 00:06:00,VALID,919.387,VALID,0,VALID,98.5672,VALID,-0.101885,VALID,20.5539,VALID,7,VALID,0.344727,
2003-01-22, 00:07:00,VALID,919.373,VALID,0,VALID,98.5443,VALID,-0.101885,VALID,20.5313,VALID,324,VALID,0.429883,
2003-01-22, 00:08:00,VALID,919.366,VALID,0,VALID,98.4947,VALID,-0.0849042,VALID,20.5152,VALID,333,VALID,0.362753,
2003-01-22, 00:09:01,VALID,919.35,VALID,0,VALID,98.5137,VALID,-0.101885,VALID,20.5055,VALID,3,VALID,0.425881,
2003-01-22, 00:10:00,VALID,919.346,VALID,0,VALID,98.5544,VALID,-0.0849042,VALID,20.4992,VALID,21,VALID,0.413857,
2003-01-22, 00:11:00,VALID,919.341,VALID,0,VALID,98.6218,VALID,-0.101885,VALID,20.5179,VALID,19,VALID,0.975391,
2003-01-22, 00:12:00,VALID,919.338,VALID,0,VALID,98.6371,VALID,-0.0849042,VALID,20.5278,VALID,13,VALID,0.298931,
2003-01-22, 00:13:01,VALID,919.336,VALID,0,VALID,98.59,VALID,-0.101885,VALID,20.5055,VALID,13,VALID,0.690662,
2003-01-22, 00:14:01,VALID,919.343,VALID,0,VALID,98.6371,VALID,-0.101885,VALID,20.5055,VALID,9,VALID,0.600535,
2003-01-22, 00:15:00,VALID,919.333,VALID,0,VALID,98.7159,VALID,-0.0849042,VALID,20.5281,VALID,17,VALID,0.564904,
2003-01-22, 00:16:00,VALID,919.34,VALID,0,VALID,98.7121,VALID,-0.0509425,VALID,20.5313,VALID,18,VALID,0.948438,
2003-01-22, 00:17:01,VALID,919.356,VALID,0,VALID,98.6943,VALID,-0.0849042,VALID,20.5149,VALID,13,VALID,0.778711,
2003-01-22, 00:18:01,VALID,919.355,VALID,0,VALID,98.7375,VALID,-0.0849042,VALID,20.5214,VALID,20,VALID,0.88742,
2003-01-22, 00:19:00,VALID,919.351,VALID,0,VALID,98.7337,VALID,0,VALID,20.5106,VALID,9,VALID,0.730469,
2003-01-22, 00:20:01,VALID,919.355,VALID,0,VALID,98.7643,VALID,0.0339617,VALID,20.5109,VALID,15,VALID,0.651105,
2003-01-22, 00:21:00,VALID,919.357,VALID,0,VALID,98.7948,VALID,0,VALID,20.5002,VALID,18,VALID,0.720753,
2003-01-22, 00:22:01,VALID,919.356,VALID,0,VALID,98.7706,VALID,0,VALID,20.4907,VALID,5,VALID,1.07574,
2003-01-22, 00:23:01,VALID,919.351,VALID,0,VALID,98.7668,VALID,0.0509425,VALID,20.4845,VALID,355,VALID,0.726004,
2003-01-22, 00:24:00,VALID,919.34,VALID,0,VALID,98.763,VALID,0,VALID,20.4716,VALID,354,VALID,0.617821,
2003-01-22, 00:25:01,VALID,919.32,VALID,0,VALID,98.7706,VALID,0.0509425,VALID,20.4584,VALID,360,VALID,0.469643,
2003-01-22, 00:26:01,VALID,919.305,VALID,0,VALID,98.7579,VALID,0.0169808,VALID,20.4547,VALID,2,VALID,0.561678,
2003-01-22, 00:27:00,VALID,919.29,VALID,0,VALID,98.7719,VALID,0.0509425,VALID,20.4484,VALID,22,VALID,0.556799,
2003-01-22, 00:28:01,VALID,919.27,VALID,0,VALID,98.7515,VALID,0.0339617,VALID,20.4684,VALID,23,VALID,0.622466,
2003-01-22, 00:29:01,VALID,919.235,VALID,0,VALID,98.7299,VALID,0.0339617,VALID,20.4713,VALID,32,VALID,0.560855,
2003-01-22, 00:30:01,VALID,919.213,VALID,0,VALID,98.7515,VALID,0.0339617,VALID,20.4843,VALID,46,VALID,0.686498,
2003-01-22, 00:31:01,VALID,919.192,VALID,0,VALID,98.6841,VALID,0.0339617,VALID,20.481,VALID,46,VALID,0.253801,
2003-01-22, 00:32:01,VALID,919.177,VALID,0,VALID,98.6638,VALID,0.0169808,VALID,20.4942,VALID,343,VALID,0.248197,
2003-01-22, 00:33:00,VALID,919.169,VALID,0,VALID,98.6346,VALID,0.0339617,VALID,20.4937,VALID,279,VALID,0.347551,
2003-01-22, 00:34:01,VALID,919.166,VALID,0,VALID,98.5748,VALID,-0.0339617,VALID,20.4883,VALID,252,VALID,0.423438,
2003-01-22, 00:35:01,VALID,919.155,VALID,0,VALID,98.557,VALID,-0.0679233,VALID,20.4925,VALID,245,VALID,0.199219,
2003-01-22, 00:36:01,VALID,919.136,VALID,0,VALID,98.5608,VALID,-0.0849042,VALID,20.4729,VALID,228,VALID,0.167441,
2003-01-22, 00:37:01,VALID,919.123,VALID,0,VALID,98.5722,VALID,-0.0679233,VALID,20.4823,VALID,224,VALID,0.300781,
2003-01-22, 00:38:01,VALID,919.107,VALID,0,VALID,98.6028,VALID,-0.0679233,VALID,20.4858,VALID,222,VALID,0.0977564,
2003-01-22, 00:39:01,VALID,919.087,VALID,0,VALID,98.6078,VALID,-0.0509425,VALID,20.5089,VALID,222,VALID,0.0803285,
2003-01-22, 00:40:01,VALID,919.07,VALID,0,VALID,98.6002,VALID,-0.0339617,VALID,20.5049,VALID,222,VALID,0.0134215,
2003-01-22, 00:41:01,VALID,919.049,VALID,0,VALID,98.6117,VALID,-0.0849042,VALID,20.5214,VALID,222,VALID,0.226763,
2003-01-22, 00:42:01,VALID,919.039,VALID,0,VALID,98.6066,VALID,-0.0679233,VALID,20.5211,VALID,328,VALID,0.407434,
2003-01-22, 00:43:01,VALID,919.011,VALID,0,VALID,98.5125,VALID,-0.0339617,VALID,20.4987,VALID,359,VALID,0.58133,
2003-01-22, 00:44:01,VALID,919.002,VALID,0,VALID,98.5074,VALID,-0.0339617,VALID,20.4888,VALID,15,VALID,0.427576,
2003-01-22, 00:45:01,VALID,919.013,VALID,0,VALID,98.5277,VALID,-0.0849042,VALID,20.5025,VALID,15,VALID,0.292188,
2003-01-22, 00:46:01,VALID,919.003,VALID,0,VALID,98.4985,VALID,-0.0849042,VALID,20.4821,VALID,15,VALID,0.313322,
2003-01-22, 00:47:01,VALID,919.006,VALID,0,VALID,98.5036,VALID,-0.0509425,VALID,20.4793,VALID,15,VALID,0.334794,
2003-01-22, 00:48:01,VALID,919.015,VALID,0,VALID,98.4921,VALID,-0.0339617,VALID,20.4828,VALID,18,VALID,0.475123,
2003-01-22, 00:49:01,VALID,919.013,VALID,0,VALID,98.4438,VALID,-0.0679233,VALID,20.4667,VALID,24,VALID,0.51863,
2003-01-22, 00:50:01,VALID,919.011,VALID,0,VALID,98.4603,VALID,-0.0339617,VALID,20.45,VALID,26,VALID,0.482171,
2003-01-22, 00:51:01,VALID,919.003,VALID,0,VALID,98.4731,VALID,-0.0849042,VALID,20.4341,VALID,27,VALID,0.392628,
2003-01-22, 00:52:01,VALID,918.981,VALID,0,VALID,98.4832,VALID,-0.0679233,VALID,20.4279,VALID,35,VALID,0.516426,
2003-01-22, 00:53:01,VALID,918.96,VALID,0,VALID,98.4692,VALID,-0.0679233,VALID,20.4284,VALID,35,VALID,0.458534,
2003-01-22, 00:54:01,VALID,918.945,VALID,0,VALID,98.4921,VALID,-0.101885,VALID,20.4246,VALID,35,VALID,0.330983,
2003-01-22, 00:55:01,VALID,918.927,VALID,0,VALID,98.5163,VALID,-0.0679233,VALID,20.4177,VALID,35,VALID,0.266827,
2003-01-22, 00:56:01,VALID,918.923,VALID,0,VALID,98.4998,VALID,-0.0679233,VALID,20.4085,VALID,35,VALID,0.158854,
2003-01-22, 00:57:01,VALID,918.91,VALID,0,VALID,98.4947,VALID,-0.0509425,VALID,20.3923,VALID,18,VALID,0.203887,
2003-01-22, 00:58:00,VALID,918.915,VALID,0,VALID,98.4921,VALID,-0.0679233,VALID,20.3757,VALID,6,VALID,0.242405,
2003-01-22, 00:59:00,VALID,918.912,VALID,0,VALID,98.4896,VALID,-0.0339617,VALID,20.3829,VALID,6,VALID,0.0802951,
2003-01-22, 01:00:00,VALID,918.923,VALID,0,VALID,98.5315,VALID,-0.0339617,VALID,20.3727,VALID,6,VALID,0.00246711,
2003-01-22, 01:01:00,VALID,918.903,VALID,0,VALID,98.5303,VALID,-0.0509425,VALID,20.3759,VALID,5,VALID,0.0758024,
2003-01-22, 01:02:00,VALID,918.903,VALID,0,VALID,98.5443,VALID,-0.0339617,VALID,20.3794,VALID,4,VALID,0.0877878,
2003-01-22, 01:03:00,VALID,918.886,VALID,0,VALID,98.5468,VALID,-0.0849042,VALID,20.3856,VALID,4,VALID,0.0474918,
2003-01-22, 01:04:00,VALID,918.876,VALID,0,VALID,98.5125,VALID,-0.0339617,VALID,20.3791,VALID,4,VALID,0.180099,
2003-01-22, 01:05:00,VALID,918.853,VALID,0,VALID,98.4756,VALID,-0.0679233,VALID,20.3694,VALID,4,VALID,0.000422297,
2003-01-22, 01:06:00,VALID,918.83,VALID,0,VALID,98.4718,VALID,-0.0339617,VALID,20.3697,VALID,4,VALID,0.240954,
2003-01-22, 01:07:00,VALID,918.801,VALID,0,VALID,98.468,VALID,-0.0509425,VALID,20.3729,VALID,5,VALID,0.0720017,
2003-01-22, 01:08:00,VALID,918.786,VALID,0,VALID,98.4387,VALID,-0.0339617,VALID,20.35,VALID,5,VALID,0.0833984,
2003-01-22, 01:09:00,VALID,918.771,VALID,0,VALID,98.4133,VALID,-0.0339617,VALID,20.3371,VALID,5,VALID,0.111779,
2003-01-22, 01:10:00,VALID,918.754,VALID,0,VALID,98.4158,VALID,-0.0169808,VALID,20.3239,VALID,5,VALID,0,
2003-01-22, 01:11:00,VALID,918.742,VALID,0,VALID,98.3853,VALID,-0.0509425,VALID,20.3085,VALID,5,VALID,0,
2003-01-22, 01:12:00,VALID,918.731,VALID,0,VALID,98.3573,VALID,-0.0849042,VALID,20.2926,VALID,5,VALID,0.0716797,
2003-01-22, 01:13:00,VALID,918.715,VALID,0,VALID,98.3205,VALID,-0.0849042,VALID,20.273,VALID,5,VALID,0.16266,
2003-01-22, 01:14:00,VALID,918.7,VALID,0,VALID,98.3357,VALID,-0.0849042,VALID,20.2633,VALID,5,VALID,0.285857,
2003-01-22, 01:15:00,VALID,918.694,VALID,0,VALID,98.3777,VALID,-0.0509425,VALID,20.2541,VALID,5,VALID,0.494191,
2003-01-22, 01:16:00,VALID,918.68,VALID,0,VALID,98.4082,VALID,-0.0849042,VALID,20.2407,VALID,5,VALID,0.443474,
2003-01-22, 01:17:00,VALID,918.672,VALID,0,VALID,98.3929,VALID,-0.0679233,VALID,20.2275,VALID,5,VALID,0.409655,
2003-01-22, 01:18:00,VALID,918.657,VALID,0,VALID,98.4095,VALID,-0.0849042,VALID,20.2118,VALID,5,VALID,0.353002,
2003-01-22, 01:19:00,VALID,918.656,VALID,0,VALID,98.4654,VALID,-0.0679233,VALID,20.2113,VALID,5,VALID,0.342187,
2003-01-22, 01:20:00,VALID,918.645,VALID,0,VALID,98.4438,VALID,-0.0509425,VALID,20.2024,VALID,5,VALID,0.307566,
2003-01-22, 01:21:00,VALID,918.641,VALID,0,VALID,98.4425,VALID,-0.0509425,VALID,20.1661,VALID,5,VALID,0.175409,
2003-01-22, 01:22:00,VALID,918.645,VALID,0,VALID,98.4603,VALID,-0.101885,VALID,20.1561,VALID,5,VALID,0.132401,
2003-01-22, 01:23:00,VALID,918.633,VALID,0,VALID,98.4667,VALID,-0.0509425,VALID,20.1467,VALID,5,VALID,0.209535,
2003-01-22, 01:24:00,VALID,918.617,VALID,0,VALID,98.5532,VALID,-0.0509425,VALID,20.1599,VALID,5,VALID,0.298438,
2003-01-22, 01:25:00,VALID,918.612,VALID,0,VALID,98.6562,VALID,-0.0849042,VALID,20.176,VALID,350,VALID,0.200586,
2003-01-22, 01:26:00,VALID,918.608,VALID,0,VALID,98.6752,VALID,-0.0509425,VALID,20.1862,VALID,350,VALID,0.242388,
2003-01-22, 01:27:00,VALID,918.605,VALID,0,VALID,98.7185,VALID,-0.0679233,VALID,20.1827,VALID,350,VALID,0.170847,
2003-01-22, 01:28:00,VALID,918.595,VALID,0,VALID,98.6791,VALID,-0.0849042,VALID,20.1793,VALID,350,VALID,0,
2003-01-22, 01:29:00,VALID,918.579,VALID,0,VALID,98.6231,VALID,-0.0679233,VALID,20.1499,VALID,350,VALID,0,
2003-01-22, 01:30:00,VALID,918.568,VALID,0,VALID,98.5532,VALID,-0.0509425,VALID,20.1114,VALID,350,VALID,0,
2003-01-22, 01:31:00,VALID,918.559,VALID,0,VALID,98.5722,VALID,-0.0679233,VALID,20.1052,VALID,350,VALID,0,
2003-01-22, 01:32:00,VALID,918.541,VALID,0,VALID,98.5265,VALID,-0.0509425,VALID,20.0826,VALID,350,VALID,0,
2003-01-22, 01:33:00,VALID,918.523,VALID,0,VALID,98.5303,VALID,-0.0679233,VALID,20.05,VALID,350,VALID,0,
2003-01-22, 01:34:00,VALID,918.499,VALID,0,VALID,98.5646,VALID,-0.0339617,VALID,20.0395,VALID,350,VALID,0,
2003-01-22, 01:35:00,VALID,918.486,VALID,0,VALID,98.604,VALID,0,VALID,20.046,VALID,350,VALID,0,
2003-01-22, 01:36:00,VALID,918.489,VALID,0,VALID,98.6129,VALID,-0.0169808,VALID,20.0298,VALID,350,VALID,0,
2003-01-22, 01:37:00,VALID,918.497,VALID,0,VALID,98.5494,VALID,0,VALID,20.0172,VALID,350,VALID,0,
2003-01-22, 01:38:00,VALID,918.524,VALID,0,VALID,98.4375,VALID,-0.0169808,VALID,19.9649,VALID,350,VALID,0,
2003-01-22, 01:39:00,VALID,918.535,VALID,0,VALID,98.4286,VALID,0,VALID,19.9299,VALID,350,VALID,0,
2003-01-22, 01:40:00,VALID,918.567,VALID,0,VALID,98.4082,VALID,-0.0169808,VALID,19.8879,VALID,350,VALID,0,
2003-01-22, 01:41:00,VALID,918.572,VALID,0,VALID,98.3701,VALID,-0.0339617,VALID,19.8591,VALID,350,VALID,0,
2003-01-22, 01:42:00,VALID,918.579,VALID,0,VALID,98.3713,VALID,0,VALID,19.8168,VALID,350,VALID,0,
2003-01-22, 01:43:00,VALID,918.58,VALID,0,VALID,98.3942,VALID,0,VALID,19.8006,VALID,350,VALID,0,
2003-01-22, 01:44:00,VALID,918.578,VALID,0,VALID,98.3955,VALID,0,VALID,19.7708,VALID,350,VALID,0,
2003-01-22, 01:45:00,VALID,918.577,VALID,0,VALID,98.4425,VALID,-0.0169808,VALID,19.7822,VALID,350,VALID,0,
2003-01-22, 01:46:00,VALID,918.569,VALID,0,VALID,98.3523,VALID,-0.0339617,VALID,19.7335,VALID,350,VALID,0,
2003-01-22, 01:47:00,VALID,918.563,VALID,0,VALID,98.1475,VALID,-0.0169808,VALID,19.6358,VALID,350,VALID,0,
2003-01-22, 01:48:00,VALID,918.555,VALID,0,VALID,98.0293,VALID,0,VALID,19.558,VALID,350,VALID,0,
2003-01-22, 01:49:00,VALID,918.532,VALID,0,VALID,98.0738,VALID,-0.0169808,VALID,19.5096,VALID,350,VALID,0,
2003-01-22, 01:50:00,VALID,918.532,VALID,0,VALID,98.173,VALID,-0.0339617,VALID,19.4941,VALID,350,VALID,0,
2003-01-22, 01:51:00,VALID,918.524,VALID,0,VALID,98.4324,VALID,0,VALID,19.5361,VALID,350,VALID,0,
2003-01-22, 01:52:00,VALID,918.525,VALID,0,VALID,98.6536,VALID,0,VALID,19.5844,VALID,350,VALID,0,
2003-01-22, 01:53:00,VALID,918.525,VALID,0,VALID,98.6727,VALID,-0.0339617,VALID,19.5978,VALID,350,VALID,0,
2003-01-22, 01:54:00,VALID,918.53,VALID,0,VALID,98.8596,VALID,-0.0679233,VALID,19.6077,VALID,350,VALID,0,
2003-01-22, 01:55:00,VALID,918.507,VALID,0,VALID,99.0605,VALID,-0.0679233,VALID,19.6589,VALID,350,VALID,0,
2003-01-22, 01:56:00,VALID,918.502,VALID,0,VALID,99.0682,VALID,-0.0339617,VALID,19.7111,VALID,350,VALID,0,
2003-01-22, 01:57:00,VALID,918.486,VALID,0,VALID,99.016,VALID,0,VALID,19.7104,VALID,350,VALID,0,
2003-01-22, 01:58:00,VALID,918.476,VALID,0,VALID,99.0351,VALID,-0.0339617,VALID,19.7077,VALID,241,VALID,0,
2003-01-22, 01:59:00,VALID,918.469,VALID,0,VALID,99.0822,VALID,-0.0169808,VALID,19.7174,VALID,216,VALID,0,
2003-01-22, 02:00:00,VALID,918.453,VALID,0,VALID,99.119,VALID,-0.0509425,VALID,19.7372,VALID,216,VALID,0,
2003-01-22, 02:01:00,VALID,918.439,VALID,0,VALID,99.0287,VALID,-0.0339617,VALID,19.7077,VALID,216,VALID,0,
2003-01-22, 02:02:00,VALID,918.416,VALID,0,VALID,98.8736,VALID,0,VALID,19.6236,VALID,216,VALID,0,
2003-01-22, 02:03:00,VALID,918.41,VALID,0,VALID,98.7948,VALID,0,VALID,19.5361,VALID,216,VALID,0,
2003-01-22, 02:04:00,VALID,918.414,VALID,0,VALID,98.7693,VALID,0,VALID,19.4586,VALID,216,VALID,0,
2003-01-22, 02:05:00,VALID,918.439,VALID,0,VALID,98.927,VALID,-0.0339617,VALID,19.4559,VALID,216,VALID,0,
2003-01-22, 02:06:00,VALID,918.439,VALID,0,VALID,98.9614,VALID,-0.0169808,VALID,19.4554,VALID,216,VALID,0,
2003-01-22, 02:07:00,VALID,918.438,VALID,0,VALID,99.0262,VALID,0,VALID,19.4782,VALID,216,VALID,0,
2003-01-22, 02:08:00,VALID,918.437,VALID,0,VALID,99.1165,VALID,0,VALID,19.5038,VALID,216,VALID,0,
2003-01-22, 02:09:00,VALID,918.417,VALID,0,VALID,99.2258,VALID,0,VALID,19.5784,VALID,216,VALID,0,
2003-01-22, 02:10:00,VALID,918.404,VALID,0,VALID,99.2347,VALID,0,VALID,19.5946,VALID,278,VALID,0,
2003-01-22, 02:11:00,VALID,918.383,VALID,0,VALID,99.1127,VALID,0.0169808,VALID,19.5265,VALID,294,VALID,0,
2003-01-22, 02:12:00,VALID,918.352,VALID,0,VALID,98.9944,VALID,-0.0169808,VALID,19.4529,VALID,294,VALID,0,
2003-01-22, 02:13:00,VALID,918.335,VALID,0,VALID,99.0173,VALID,0,VALID,19.4007,VALID,294,VALID,0,
2003-01-22, 02:14:00,VALID,918.31,VALID,0,VALID,99.0809,VALID,0.0169808,VALID,19.3907,VALID,294,VALID,0,
2003-01-22, 02:15:00,VALID,918.302,VALID,0,VALID,99.1127,VALID,0,VALID,19.3972,VALID,294,VALID,0,
2003-01-22, 02:16:00,VALID,918.288,VALID,0,VALID,99.1305,VALID,-0.0169808,VALID,19.3845,VALID,294,VALID,0,
2003-01-22, 02:17:00,VALID,918.276,VALID,0,VALID,99.1419,VALID,-0.0339617,VALID,19.3781,VALID,294,VALID,0,
2003-01-22, 02:18:00,VALID,918.265,VALID,0,VALID,99.1521,VALID,-0.0509425,VALID,19.3718,VALID,294,VALID,0,
2003-01-22, 02:19:00,VALID,918.264,VALID,0,VALID,99.1877,VALID,-0.0169808,VALID,19.3624,VALID,294,VALID,0,
2003-01-22, 02:20:00,VALID,918.265,VALID,0,VALID,99.2437,VALID,-0.0169808,VALID,19.3751,VALID,294,VALID,0,
2003-01-22, 02:21:00,VALID,918.275,VALID,0,VALID,99.203,VALID,-0.0339617,VALID,19.3654,VALID,294,VALID,0,
2003-01-22, 02:22:00,VALID,918.276,VALID,0,VALID,99.1801,VALID,0,VALID,19.3492,VALID,294,VALID,0,
2003-01-22, 02:23:00,VALID,918.279,VALID,0,VALID,99.0771,VALID,0,VALID,19.2938,VALID,295,VALID,0,
2003-01-22, 02:24:00,VALID,918.254,VALID,0,VALID,98.9105,VALID,0,VALID,19.1842,VALID,31,VALID,0,
2003-01-22, 02:25:00,VALID,918.241,VALID,0,VALID,98.8965,VALID,0,VALID,19.0969,VALID,37,VALID,0,
2003-01-22, 02:26:00,VALID,918.23,VALID,0,VALID,98.927,VALID,-0.0339617,VALID,19.0328,VALID,50,VALID,0,
2003-01-22, 02:27:00,VALID,918.234,VALID,0,VALID,99.0987,VALID,0,VALID,19.0132,VALID,62,VALID,0,
2003-01-22, 02:28:00,VALID,918.234,VALID,0,VALID,99.1496,VALID,0,VALID,19.0095,VALID,64,VALID,0,
2003-01-22, 02:29:00,VALID,918.229,VALID,0,VALID,99.1674,VALID,0,VALID,19,VALID,64,VALID,0,
2003-01-22, 02:30:00,VALID,918.212,VALID,0,VALID,99.1686,VALID,0,VALID,18.9908,VALID,59,VALID,0,
2003-01-22, 02:31:00,VALID,918.209,VALID,0,VALID,99.0974,VALID,-0.0339617,VALID,18.9356,VALID,51,VALID,0,
2003-01-22, 02:32:00,VALID,918.195,VALID,0,VALID,99.1381,VALID,0,VALID,18.8971,VALID,47,VALID,0,
2003-01-22, 02:33:00,VALID,918.167,VALID,0,VALID,99.2627,VALID,0,VALID,18.8936,VALID,47,VALID,0,
2003-01-22, 02:34:00,VALID,918.171,VALID,0,VALID,99.3416,VALID,-0.0169808,VALID,18.9523,VALID,47,VALID,0,
2003-01-22, 02:35:00,VALID,918.174,VALID,0,VALID,99.4229,VALID,0,VALID,19.0296,VALID,47,VALID,0,
2003-01-22, 02:36:00,VALID,918.143,VALID,0,VALID,99.4725,VALID,0,VALID,19.1036,VALID,47,VALID,0,
2003-01-22, 02:37:00,VALID,918.127,VALID,0,VALID,99.517,VALID,0,VALID,19.1516,VALID,47,VALID,0,
2003-01-22, 02:38:00,VALID,918.09,VALID,0,VALID,99.5348,VALID,0,VALID,19.2175,VALID,47,VALID,0,
2003-01-22, 02:39:00,VALID,918.06,VALID,0,VALID,99.5285,VALID,0,VALID,19.2262,VALID,47,VALID,0,
2003-01-22, 02:40:00,VALID,918.04,VALID,0,VALID,99.5272,VALID,0,VALID,19.2428,VALID,47,VALID,0,
2003-01-22, 02:41:00,VALID,918.036,VALID,0,VALID,99.5247,VALID,0,VALID,19.2759,VALID,47,VALID,0,
2003-01-22, 02:42:00,VALID,918.038,VALID,0,VALID,99.5488,VALID,0,VALID,19.2851,VALID,47,VALID,0,
2003-01-22, 02:43:00,VALID,918.029,VALID,0,VALID,99.5348,VALID,0,VALID,19.2873,VALID,47,VALID,0,
2003-01-22, 02:44:00,VALID,918.02,VALID,0,VALID,99.517,VALID,-0.0169808,VALID,19.2818,VALID,47,VALID,0,
2003-01-22, 02:45:00,VALID,918.016,VALID,0,VALID,99.5158,VALID,-0.0169808,VALID,19.2975,VALID,18,VALID,0,
2003-01-22, 02:46:00,VALID,918.006,VALID,0,VALID,99.545,VALID,0,VALID,19.3659,VALID,13,VALID,0,
2003-01-22, 02:47:00,VALID,918.007,VALID,0,VALID,99.5577,VALID,0,VALID,19.4176,VALID,13,VALID,0,
2003-01-22, 02:48:00,VALID,918.007,VALID,0,VALID,99.5755,VALID,-0.0339617,VALID,19.4596,VALID,13,VALID,0,
2003-01-22, 02:49:00,VALID,917.995,VALID,0,VALID,99.5819,VALID,-0.0169808,VALID,19.4653,VALID,13,VALID,0,
2003-01-22, 02:50:00,VALID,917.982,VALID,0,VALID,99.5832,VALID,-0.0339617,VALID,19.4824,VALID,13,VALID,0,
2003-01-22, 02:51:00,VALID,917.964,VALID,0,VALID,99.5844,VALID,-0.0169808,VALID,19.4688,VALID,13,VALID,0,
2003-01-22, 02:52:00,VALID,917.963,VALID,0,VALID,99.5806,VALID,-0.0509425,VALID,19.4787,VALID,13,VALID,0,
2003-01-22, 02:53:00,VALID,917.946,VALID,0,VALID,99.5908,VALID,0,VALID,19.4685,VALID,13,VALID,0,
2003-01-22, 02:54:00,VALID,917.937,VALID,0,VALID,99.5832,VALID,-0.0339617,VALID,19.5076,VALID,356,VALID,0,
2003-01-22, 02:55:00,VALID,917.914,VALID,0,VALID,99.5959,VALID,-0.0169808,VALID,19.5757,VALID,358,VALID,0,
2003-01-22, 02:56:00,VALID,917.905,VALID,0,VALID,99.5933,VALID,-0.0169808,VALID,19.6306,VALID,6,VALID,0,
2003-01-22, 02:57:00,VALID,917.911,VALID,0,VALID,99.5984,VALID,0,VALID,19.6336,VALID,20,VALID,0,
2003-01-22, 02:58:00,VALID,917.909,VALID,0,VALID,99.6022,VALID,0,VALID,19.6468,VALID,17,VALID,0,
2003-01-22, 02:59:00,VALID,917.918,VALID,0,VALID,99.6073,VALID,-0.0169808,VALID,19.6495,VALID,359,VALID,0,
2003-01-22, 03:00:00,VALID,917.935,VALID,0,VALID,99.5997,VALID,0,VALID,19.6721,VALID,359,VALID,0,
2003-01-22, 03:01:00,VALID,917.927,VALID,0,VALID,99.5997,VALID,0,VALID,19.6751,VALID,360,VALID,0,
2003-01-22, 03:02:00,VALID,917.932,VALID,0,VALID,99.6022,VALID,0,VALID,19.6947,VALID,31,VALID,0,
2003-01-22, 03:03:00,VALID,917.941,VALID,0,VALID,99.6111,VALID,0,VALID,19.6915,VALID,28,VALID,0,
2003-01-22, 03:04:00,VALID,917.949,VALID,0,VALID,99.5933,VALID,0,VALID,19.6756,VALID,13,VALID,0,
2003-01-22, 03:05:00,VALID,917.945,VALID,0,VALID,99.5997,VALID,0,VALID,19.6691,VALID,20,VALID,0,
2003-01-22, 03:06:00,VALID,917.928,VALID,0,VALID,99.6086,VALID,0,VALID,19.6913,VALID,20,VALID,0,
2003-01-22, 03:07:00,VALID,917.915,VALID,0,VALID,99.6061,VALID,-0.0169808,VALID,19.6982,VALID,11,VALID,0,
2003-01-22, 03:08:00,VALID,917.913,VALID,0,VALID,99.5959,VALID,-0.0169808,VALID,19.6821,VALID,16,VALID,0.726362,
2003-01-22, 03:09:00,VALID,917.909,VALID,0,VALID,99.6048,VALID,0,VALID,19.698,VALID,360,VALID,0.889423,
2003-01-22, 03:10:00,VALID,917.888,VALID,0,VALID,99.5972,VALID,-0.0339617,VALID,19.6793,VALID,353,VALID,0.574314,
2003-01-22, 03:11:00,VALID,917.878,VALID,0,VALID,99.6048,VALID,-0.0169808,VALID,19.6634,VALID,359,VALID,0.444712,
2003-01-22, 03:12:00,VALID,917.844,VALID,0,VALID,99.601,VALID,-0.0509425,VALID,19.6468,VALID,300,VALID,0.38954,
2003-01-22, 03:13:00,VALID,917.826,VALID,0,VALID,99.5984,VALID,0,VALID,19.6274,VALID,227,VALID,0.449886,
2003-01-22, 03:14:00,VALID,917.803,VALID,0,VALID,99.601,VALID,-0.0169808,VALID,19.6207,VALID,222,VALID,0.160156,
2003-01-22, 03:15:00,VALID,917.795,VALID,0,VALID,99.6048,VALID,-0.0169808,VALID,19.6043,VALID,222,VALID,0.137153,
2003-01-22, 03:16:00,VALID,917.78,VALID,0,VALID,99.6073,VALID,-0.0169808,VALID,19.5911,VALID,241,VALID,0.21875,
2003-01-22, 03:17:00,VALID,917.79,VALID,0,VALID,99.5946,VALID,-0.0169808,VALID,19.5948,VALID,278,VALID,0.0812922,
2003-01-22, 03:18:00,VALID,917.803,VALID,0,VALID,99.5972,VALID,0.0169808,VALID,19.598,VALID,24,VALID,0.656044,
2003-01-22, 03:19:00,VALID,917.814,VALID,0,VALID,99.6124,VALID,0,VALID,19.6239,VALID,16,VALID,0.414063,
2003-01-22, 03:20:00,VALID,917.816,VALID,0,VALID,99.6251,VALID,-0.0169808,VALID,19.654,VALID,21,VALID,0.467105,
2003-01-22, 03:21:00,VALID,917.816,VALID,0,VALID,99.6137,VALID,-0.0169808,VALID,19.6279,VALID,20,VALID,0.638302,
2003-01-22, 03:22:00,VALID,917.821,VALID,0,VALID,99.6226,VALID,-0.0169808,VALID,19.6276,VALID,17,VALID,0.63898,
2003-01-22, 03:23:00,VALID,917.824,VALID,0,VALID,99.6162,VALID,-0.0679233,VALID,19.6177,VALID,18,VALID,0.4981,
2003-01-22, 03:24:00,VALID,917.832,VALID,0,VALID,99.62,VALID,-0.0339617,VALID,19.6209,VALID,20,VALID,0.650781,
2003-01-22, 03:25:00,VALID,917.826,VALID,0,VALID,99.6226,VALID,-0.0339617,VALID,19.644,VALID,29,VALID,0.391026,
2003-01-22, 03:26:00,VALID,917.819,VALID,0,VALID,99.6239,VALID,0,VALID,19.6279,VALID,28,VALID,0.633446,
2003-01-22, 03:27:00,VALID,917.81,VALID,0,VALID,99.6226,VALID,-0.0169808,VALID,19.5794,VALID,25,VALID,0.628405,
2003-01-22, 03:28:00,VALID,917.8,VALID,0,VALID,99.6264,VALID,-0.0169808,VALID,19.5764,VALID,25,VALID,0.440625,
2003-01-22, 03:29:00,VALID,917.798,VALID,0,VALID,99.6315,VALID,0,VALID,19.5563,VALID,25,VALID,0.416266,
2003-01-22, 03:30:00,VALID,917.824,VALID,0,VALID,99.6302,VALID,0,VALID,19.5431,VALID,358,VALID,0.535457,
2003-01-22, 03:31:00,VALID,917.853,VALID,0,VALID,99.6302,VALID,0,VALID,19.5337,VALID,8,VALID,0.365385,
2003-01-22, 03:32:00,VALID,917.865,VALID,0,VALID,99.6328,VALID,-0.0339617,VALID,19.5138,VALID,10,VALID,0.41705,
2003-01-22, 03:33:00,VALID,917.867,VALID,0,VALID,99.6353,VALID,-0.0679233,VALID,19.5304,VALID,8,VALID,0.63121,
2003-01-22, 03:34:00,VALID,917.848,VALID,0,VALID,99.6289,VALID,0,VALID,19.5503,VALID,36,VALID,0.406867,
2003-01-22, 03:35:00,VALID,917.844,VALID,0,VALID,99.6442,VALID,-0.0679233,VALID,19.5635,VALID,28,VALID,0.661914,
2003-01-22, 03:36:00,VALID,917.83,VALID,0,VALID,99.6417,VALID,-0.0169808,VALID,19.5789,VALID,24,VALID,0.618627,
2003-01-22, 03:37:00,VALID,917.823,VALID,0,VALID,99.648,VALID,-0.0169808,VALID,19.5821,VALID,23,VALID,0.523065,
2003-01-22, 03:38:00,VALID,917.836,VALID,0,VALID,99.6429,VALID,-0.0339617,VALID,19.6045,VALID,21,VALID,0.595395,
2003-01-22, 03:39:00,VALID,917.833,VALID,0,VALID,99.6468,VALID,-0.0339617,VALID,19.5824,VALID,14,VALID,0.677885,